User: anonymous   Login
Location: Unspecified
(0.0000°N, 0.0000°E)
Time: 18:22:07
(UTC+00:00)
Language:

FLOCK 4G 4 - Orbit

View from above orbital plane
View from above orbital plane
View from above satellite
View from above satellite

Ground track
Ground track

The orbit is defined by the following mean orbital elements,

1 62659U          26144.80244198 +.00000000 +00000-0 +10411-2 0 00003
2 62659  97.3951 226.2415 0003492  66.6869 293.4737 15.28454415    09
Epoch (UTC): 24 May 2026 19:15:30
Eccentricity: 0.0003492
inclination: 97.3951°
perigee height: 478 km
apogee height: 483 km
right ascension of ascending node: 226.2415°
argument of perigee: 66.6869°
revolutions per day: 15.28454415
mean anomaly at epoch: 293.4737°

The dashed part of the orbit path shows where the satellite is in the earth's shadow,  

DLR